TimePDT,TemperatureF,Dew PointF,Humidity,Sea Level PressureIn,VisibilityMPH,Wind Direction,Wind SpeedMPH,Gust SpeedMPH,PrecipitationIn,Events,Conditions,WindDirDegrees,DateUTC
12:14 AM,66.2,60.8,83,29.87,10.0,South,6.9,-,N/A,,Mostly Cloudy,170,2012-10-21 07:14:00
12:25 AM,66.2,60.8,83,29.87,10.0,South,4.6,-,N/A,,Overcast,190,2012-10-21 07:25:00
12:51 AM,66.2,60.8,83,29.87,10.0,South,4.6,-,N/A,,Overcast,190,2012-10-21 07:51:00
12:53 AM,66.0,60.1,81,29.87,10.0,South,4.6,-,N/A,,Overcast,190,2012-10-21 07:53:00
1:23 AM,66.2,60.8,83,29.87,10.0,South,4.6,-,N/A,,Overcast,190,2012-10-21 08:23:00
1:53 AM,66.0,59.0,78,29.88,10.0,SSE,3.5,-,N/A,,Overcast,150,2012-10-21 08:53:00
2:53 AM,66.0,60.1,81,29.87,6.0,ESE,6.9,-,0.00,Rain,Light Rain,110,2012-10-21 09:53:00
3:30 AM,64.4,60.8,88,29.86,10.0,East,4.6,-,0.00,,Overcast,100,2012-10-21 10:30:00
3:53 AM,64.9,60.1,84,29.86,10.0,ESE,6.9,-,0.00,,Overcast,110,2012-10-21 10:53:00
4:01 AM,64.4,60.8,88,29.86,10.0,SE,8.1,-,N/A,,Overcast,130,2012-10-21 11:01:00
4:10 AM,64.4,60.8,88,29.86,10.0,SE,5.8,-,N/A,,Overcast,130,2012-10-21 11:10:00
4:37 AM,64.4,60.8,88,29.86,10.0,SE,4.6,-,N/A,,Overcast,140,2012-10-21 11:37:00
4:53 AM,66.0,60.1,81,29.86,9.0,SE,4.6,-,N/A,,Overcast,140,2012-10-21 11:53:00
5:22 AM,64.4,60.8,88,29.86,3.0,SE,5.8,-,0.00,Rain,Light Rain,130,2012-10-21 12:22:00
5:53 AM,64.9,60.1,84,29.87,5.0,SE,3.5,-,0.01,Rain,Light Rain,130,2012-10-21 12:53:00
6:25 AM,64.4,60.8,88,29.87,7.0,SE,5.8,-,0.00,Rain,Light Rain,130,2012-10-21 13:25:00
6:53 AM,64.9,60.1,84,29.87,10.0,ESE,4.6,-,0.00,,Mostly Cloudy,120,2012-10-21 13:53:00
7:00 AM,64.4,60.8,88,29.87,10.0,ESE,8.1,-,N/A,,Mostly Cloudy,110,2012-10-21 14:00:00
7:53 AM,66.0,60.1,81,29.89,10.0,ESE,5.8,-,N/A,,Mostly Cloudy,110,2012-10-21 14:53:00
8:53 AM,68.0,60.1,76,29.91,10.0,SE,5.8,-,N/A,,Mostly Cloudy,130,2012-10-21 15:53:00
9:53 AM,68.0,59.0,73,29.92,10.0,SE,3.5,-,N/A,,Mostly Cloudy,140,2012-10-21 16:53:00
10:53 AM,70.0,59.0,68,29.91,10.0,Variable,4.6,-,N/A,,Mostly Cloudy,0,2012-10-21 17:53:00
11:53 AM,73.9,59.0,59,29.91,10.0,SSW,12.7,-,N/A,,Mostly Cloudy,200,2012-10-21 18:53:00
12:53 PM,73.9,59.0,59,29.89,10.0,SSW,11.5,-,N/A,,Mostly Cloudy,200,2012-10-21 19:53:00
1:53 PM,75.0,57.9,55,29.87,10.0,SW,10.4,-,N/A,,Scattered Clouds,220,2012-10-21 20:53:00
2:53 PM,73.0,59.0,61,29.86,10.0,SW,11.5,-,N/A,,Mostly Cloudy,230,2012-10-21 21:53:00
3:53 PM,73.0,57.9,59,29.86,10.0,SSW,11.5,-,N/A,,Mostly Cloudy,210,2012-10-21 22:53:00
4:53 PM,71.1,59.0,66,29.86,10.0,SSW,8.1,-,N/A,,Scattered Clouds,210,2012-10-21 23:53:00
5:32 PM,69.8,59.0,68,29.87,10.0,SW,5.8,-,N/A,,Mostly Cloudy,230,2012-10-22 00:32:00
5:53 PM,69.1,59.0,70,29.87,10.0,WSW,4.6,-,N/A,,Mostly Cloudy,240,2012-10-22 00:53:00
6:04 PM,69.8,59.0,68,29.88,10.0,WSW,4.6,-,N/A,,Mostly Cloudy,240,2012-10-22 01:04:00
6:53 PM,68.0,59.0,73,29.88,10.0,WSW,5.8,-,N/A,,Partly Cloudy,250,2012-10-22 01:53:00
7:53 PM,66.9,57.9,73,29.89,10.0,Calm,Calm,-,N/A,,Scattered Clouds,0,2012-10-22 02:53:00
8:53 PM,66.0,57.9,75,29.90,10.0,Calm,Calm,-,N/A,,Scattered Clouds,0,2012-10-22 03:53:00
9:53 PM,66.0,57.9,75,29.91,10.0,Calm,Calm,-,N/A,,Mostly Cloudy,0,2012-10-22 04:53:00
10:00 PM,66.2,57.2,73,29.92,10.0,Calm,Calm,-,N/A,,Mostly Cloudy,0,2012-10-22 05:00:00
10:32 PM,66.2,57.2,73,29.92,10.0,Calm,Calm,-,N/A,,Mostly Cloudy,0,2012-10-22 05:32:00
10:53 PM,66.9,57.9,73,29.92,10.0,Calm,Calm,-,N/A,,Overcast,0,2012-10-22 05:53:00
11:08 PM,66.2,57.2,73,29.92,10.0,Calm,Calm,-,N/A,,Overcast,0,2012-10-22 06:08:00
11:53 PM,66.9,57.9,73,29.92,10.0,Calm,Calm,-,N/A,,Overcast,0,2012-10-22 06:53:00